Terug naar catalogus

STARLINK-11162

ActiefCommunicatieVLEO
NORAD 60123·PAYLOAD·🇺🇸 United States

Gelanceerd Jun 24, 2024 vanaf Vandenberg Space Force Base

Loading…

Volgende Passages (komende 24 uur)

TLE

VersSource: CelesTrak SupGP

Epoch: Sep 14, 2026, 15:03 UTC

1 60123C 24118L   26257.62756944  .00001051  00000+0  86589-5 0  2577
2 60123  53.1572   9.5557 0001141  86.3566 227.8856 15.69698711    11

Volg STARLINK-11162 in realtime met AllMySat

Download on the App Store